Location: Miles
(41.4492°N, 81.6087°W)
Time: 14:40:53
(UTC+00:00)

A-11 Canister half - Pass Details

Date: 17 September 2024
Orbit: 1515 x 1684 km, 47.2° (Epoch: 11 October)

Event Time Altitude Azimuth Distance (km) Brightness Sun altitude
Rises 23:54:40 0° 239° (WSW) 4,750 12.5 -4.9°
Reaches altitude 10° 23:57:46 10° 239° (WSW) 3,746 11.9 -5.5°
Maximum altitude 00:07:14 87° 152° (SSE) 1,535 9.0 -7.2°
Drops below altitude 10° 00:16:31 10° 65° (ENE) 3,678 10.5 -8.9°
Enters shadow 00:19:04 - 65° (ENE) 4,506 11.0 -9.4°
